H1 CPF 2 NER 2025 8 13 9 225 01 glonass140 H2 1903001 9140 44299 2025 8 13 0 0 0 2025 8 16 23 45 0 900 1 1 0 0 0 1 H9 10 0 60900 0.00000 0 1020199.195 18917451.885 -17055592.984 10 0 60900 900.00000 0 -45213.284 16954500.876 -19031582.793 10 0 60900 1800.00000 0 -1374541.164 14891401.373 -20637081.825 10 0 60900 2700.00000 0 -2956464.180 12793368.519 -21840739.676 10 0 60900 3600.00000 0 -4767354.608 10723881.350 -22619035.096 10 0 60900 4500.00000 0 -6772032.521 8742145.378 -22956742.609 10 0 60900 5400.00000 0 -8925019.072 6900751.050 -22847235.719 10 0 60900 6300.00000 0 -11172236.459 5243626.460 -22292620.407 10 0 60900 7200.00000 0 -13453084.097 3804370.115 -21303696.043 10 0 60900 8100.00000 0 -15702804.474 2605033.426 -19899744.288 10 0 60900 9000.00000 0 -17855039.628 1655403.362 -18108150.041 10 0 60900 9900.00000 0 -19844470.979 952814.495 -15963861.952 10 0 60900 10800.00000 0 -21609431.502 482496.959 -13508703.292 10 0 60900 11700.00000 0 -23094380.369 218444.082 -10790547.104 10 0 60900 12600.00000 0 -24252135.911 124761.199 -7862372.443 10 0 60900 13500.00000 0 -25045773.084 157436.734 -4781220.993 10 0 60900 14400.00000 0 -25450105.974 266458.622 -1607075.396 10 0 60900 15300.00000 0 -25452693.609 398184.673 1598317.710 10 0 60900 16200.00000 0 -25054327.741 497864.859 4772655.990 10 0 60900 17100.00000 0 -24268983.328 512207.423 7854296.665 10 0 60900 18000.00000 0 -23123235.237 391879.272 10783454.398 10 0 60900 18900.00000 0 -21655167.120 93834.403 13503358.317 10 0 60900 19800.00000 0 -19912819.587 -416628.127 15961345.841 10 0 60900 20700.00000 0 -17952243.794 -1164163.315 18109872.682 10 0 60900 21600.00000 0 -15835242.505 -2162107.677 19907420.436 10 0 60900 22500.00000 0 -13626893.152 -3411688.138 21319285.510 10 0 60900 23400.00000 0 -11392955.794 -4901745.244 22318235.610 10 0 60900 24300.00000 0 -9197273.025 -6608982.244 22885022.635 10 0 60900 25200.00000 0 -7099268.579 -8498729.981 23008743.528 10 0 60900 26100.00000 0 -5151646.937 -10526196.379 22687043.226 10 0 60900 27000.00000 0 -3398387.658 -12638149.608 21926156.604 10 0 60900 27900.00000 0 -1873115.853 -14774966.369 20740788.887 10 0 60900 28800.00000 0 -597914.920 -16872961.720 19153836.646 10 0 60900 29700.00000 0 417370.520 -18866905.305 17195954.143 10 0 60900 30600.00000 0 1175313.452 -20692620.963 14904972.333 10 0 60900 31500.00000 0 1690558.221 -22289562.822 12325180.456 10 0 60900 32400.00000 0 1988963.939 -23603261.563 9506482.712 10 0 60900 33300.00000 0 2106273.400 -24587539.269 6503444.872 10 0 60900 34200.00000 0 2086363.137 -25206400.354 3374248.093 10 0 60900 35100.00000 0 1979147.962 -25435518.941 179569.212 10 0 60900 36000.00000 0 1838228.106 -25263259.492 -3018591.420 10 0 60900 36900.00000 0 1718378.268 -24691186.618 -6158112.049 10 0 60900 37800.00000 0 1672985.010 -23734041.281 -9177958.125 10 0 60900 38700.00000 0 1751541.536 -22419182.874 -12019373.566 10 0 60900 39600.00000 0 1997306.902 -20785519.258 -14627030.819 10 0 60900 40500.00000 0 2445230.074 -18881968.476 -16950116.583 10 0 60900 41400.00000 0 3120228.344 -16765515.799 -18943331.242 10 0 60900 42300.00000 0 4035894.714 -14498946.996 -20567781.665 10 0 60900 43200.00000 0 5193690.853 -12148352.560 -21791749.228 10 0 60900 44100.00000 0 6582661.627 -9780507.330 -22591317.426 10 0 60900 45000.00000 0 8179685.073 -7460235.395 -22950846.200 10 0 60900 45900.00000 0 9950248.928 -5247870.698 -22863283.306 10 0 60900 46800.00000 0 11849722.386 -3196919.759 -22330306.213 10 0 60900 47700.00000 0 13825070.581 -1352024.372 -21362291.513 10 0 60900 48600.00000 0 15816940.367 252690.660 -19978112.206 10 0 60900 49500.00000 0 17762030.048 1594816.066 -18204766.779 10 0 60900 50400.00000 0 19595643.406 2664353.475 -16076847.395 10 0 60900 51300.00000 0 21254320.449 3463879.704 -13635857.837 10 0 60900 52200.00000 0 22678433.867 4008174.646 -10929394.992 10 0 60900 53100.00000 0 23814641.624 4323330.283 -8010210.528 10 0 60900 54000.00000 0 24618092.166 4445380.523 -4935171.968 10 0 60900 54900.00000 0 25054289.430 4418511.889 -1764144.388 10 0 60900 55800.00000 0 25100539.331 4292932.775 1441184.335 10 0 60900 56700.00000 0 24746917.424 4122493.380 4618510.805 10 0 60900 57600.00000 0 23996717.871 3962158.619 7706131.561 10 0 60900 58500.00000 0 22866365.931 3865442.165 10644142.364 10 0 60900 59400.00000 0 21384798.841 3881910.907 13375597.776 10 0 60900 60300.00000 0 19592342.252 4054865.581 15847608.623 10 0 60900 61200.00000 0 17539130.282 4419295.391 18012356.620 10 0 60900 62100.00000 0 15283135.932 5000192.412 19828007.453 10 0 60900 63000.00000 0 12887894.335 5811296.193 21259505.954 10 0 60900 63900.00000 0 10420013.452 6854320.729 22279239.410 10 0 60900 64800.00000 0 7946575.029 8118695.872 22867557.797 10 0 60900 65700.00000 0 5532532.540 9581833.946 23013142.259 10 0 60900 66600.00000 0 3238212.537 11209910.744 22713215.935 10 0 60900 67500.00000 0 1117021.220 12959129.079 21973593.828 10 0 60900 68400.00000 0 -786550.573 14777413.359 20808571.110 10 0 60900 69300.00000 0 -2438542.993 16606465.988 19240651.837 10 0 60900 70200.00000 0 -3816697.906 18384101.534 17300122.714 10 0 60900 71100.00000 0 -4911137.354 20046762.982 15024479.076 10 0 60900 72000.00000 0 -5724522.326 21532116.594 12457712.934 10 0 60900 72900.00000 0 -6271685.747 22781618.139 9649475.387 10 0 60900 73800.00000 0 -6578755.199 23742943.991 6654128.196 10 0 60900 74700.00000 0 -6681802.054 24372185.494 3529701.655 10 0 60900 75600.00000 0 -6625073.579 24635714.336 336777.949 10 0 60900 76500.00000 0 -6458882.216 24511639.849 -2862679.019 10 0 60900 77400.00000 0 -6237240.933 23990795.784 -6006524.832 10 0 60900 78300.00000 0 -6015344.668 23077213.609 -9033643.436 10 0 60900 79200.00000 0 -5847004.712 21788060.710 -11885139.802 10 0 60900 80100.00000 0 -5782145.330 20153044.429 -14505492.529 10 0 60900 81000.00000 0 -5864469.597 18213305.391 -16843643.212 10 0 60900 81900.00000 0 -6129394.546 16019845.208 -18854000.561 10 0 60900 82800.00000 0 -6602344.522 13631553.488 -20497338.814 10 0 60900 83700.00000 0 -7297476.571 11112916.077 -21741572.230 10 0 60900 84600.00000 0 -8216893.425 8531500.064 -22562389.849 10 0 60900 85500.00000 0 -9350378.958 5955320.607 -22943737.548 10 0 60901 0.00000 0 -10675668.631 3450199.890 -22878137.551 10 0 60901 900.00000 0 -12159245.564 1077227.318 -22366838.641 10 0 60901 1800.00000 0 -13757627.826 -1109569.533 -21419794.046 10 0 60901 2700.00000 0 -15419095.751 -3065250.428 -20055467.122 10 0 60901 3600.00000 0 -17085785.127 -4755596.765 -18300468.537 10 0 60901 4500.00000 0 -18696058.773 -6158288.217 -16189032.167 10 0 60901 5400.00000 0 -20187056.249 -7263573.273 -13762340.176 10 0 60901 6300.00000 0 -21497313.861 -8074406.966 -11067710.893 10 0 60901 7200.00000 0 -22569344.020 -8606051.754 -8157666.013 10 0 60901 8100.00000 0 -23352064.735 -8885160.441 -5088896.183 10 0 60901 9000.00000 0 -23802976.526 -8948382.027 -1921146.120 10 0 60901 9900.00000 0 -23889994.846 -8840551.580 1283957.887 10 0 60901 10800.00000 0 -23592860.976 -8612542.770 4464114.227 10 0 60901 11700.00000 0 -22904072.468 -8318875.751 7557561.587 10 0 60901 12600.00000 0 -21829294.694 -8015183.010 10504279.610 10 0 60901 13500.00000 0 -20387237.132 -7755641.390 13247150.964 10 0 60901 14400.00000 0 -18609000.533 -7590479.296 15733062.395 10 0 60901 15300.00000 0 -16536923.189 -7563664.364 17913923.893 10 0 60901 16200.00000 0 -14222975.208 -7710868.712 19747587.205 10 0 60901 17100.00000 0 -11726768.037 -8057796.824 21198647.174 10 0 60901 18000.00000 0 -9113262.038 -8618945.567 22239111.876 10 0 60901 18900.00000 0 -6450266.745 -9396847.736 22848930.134 10 0 60901 19800.00000 0 -3805836.477 -10381830.302 23016367.679 10 0 60901 20700.00000 0 -1245667.823 -11552297.393 22738225.844 10 0 60901 21600.00000 0 1169394.948 -12875526.445 22019899.415 10 0 60901 22500.00000 0 3385645.127 -14308945.005 20875272.851 10 0 60901 23400.00000 0 5358496.612 -15801835.976 19326456.744 10 0 60901 24300.00000 0 7054084.242 -17297401.481 17403369.006 10 0 60901 25200.00000 0 8450416.407 -18735100.662 15143167.837 10 0 60901 26100.00000 0 9538033.033 -20053165.164 12589546.194 10 0 60901 27000.00000 0 10320142.223 -21191188.319 9791899.969 10 0 60901 27900.00000 0 10812230.148 -22092680.519 6804384.530 10 0 60901 28800.00000 0 11041160.559 -22707484.007 3684876.686 10 0 60901 29700.00000 0 11043801.539 -22993945.665 493861.169 10 0 60901 30600.00000 0 10865236.976 -22920755.832 -2706737.472 10 0 60901 31500.00000 0 10556637.909 -22468374.694 -5854755.122 10 0 60901 32400.00000 0 10172883.517 -21629984.729 -8888997.171 10 0 60901 33300.00000 0 9770032.405 -20411927.311 -11750432.526 10 0 60901 34200.00000 0 9402751.564 -18833603.230 -14383348.720 10 0 60901 35100.00000 0 9121812.513 -16926839.379 -16736444.869 10 0 60901 36000.00000 0 8971761.513 -14734746.513 -18763840.411 10 0 60901 36900.00000 0 8988863.669 -12310114.498 -20425979.086 10 0 60901 37800.00000 0 9199409.172 -9713411.183 -21690409.819 10 0 60901 38700.00000 0 9618454.699 -7010467.809 -22532428.599 10 0 60901 39600.00000 0 10249054.511 -4269947.287 -22935568.209 10 0 60901 40500.00000 0 11082014.993 -1560700.875 -22891925.828 10 0 60901 41400.00000 0 12096184.065 1050876.444 -22402321.678 10 0 60901 42300.00000 0 13259264.098 3503381.434 -21476285.344 10 0 60901 43200.00000 0 14529114.583 5742723.127 -20131869.831 10 0 60901 44100.00000 0 15855489.871 7724131.660 -18395296.894 10 0 60901 45000.00000 0 17182138.590 9413771.871 -16300440.645 10 0 60901 45900.00000 0 18449175.854 10789894.930 -13888159.766 10 0 60901 46800.00000 0 19595627.626 11843480.918 -11205491.776 10 0 60901 47700.00000 0 20562039.158 12578346.897 -8304725.771 10 0 60901 48600.00000 0 21293036.744 13010717.865 -5242372.572 10 0 60901 49500.00000 0 21739734.027 13168280.780 -2078053.326 10 0 60901 50400.00000 0 21861880.895 13088763.805 1126670.650 10 0 60901 51300.00000 0 21629664.124 12818103.002 4309502.957 10 0 60901 52200.00000 0 21025083.999 12408275.953 7408627.800 10 0 60901 53100.00000 0 20042849.304 11914895.584 10363911.903 10 0 60901 54000.00000 0 18690753.648 11394667.139 13118069.006 10 0 60901 54900.00000 0 16989518.022 10902816.468 15617764.432 10 0 60901 55800.00000 0 14972106.895 10490598.374 17814638.781 10 0 60901 56700.00000 0 12682547.001 10202989.804 19666231.841 10 0 60901 57600.00000 0 10174298.358 10076664.332 21136790.110 10 0 60901 58500.00000 0 7508245.295 10138332.201 22197943.718 10 0 60901 59400.00000 0 4750390.434 10403514.626 22829241.227 10 0 60901 60300.00000 0 1969346.323 10875802.870 23018533.429 10 0 60901 61200.00000 0 -766272.666 11546632.522 22762199.895 10 0 60901 62100.00000 0 -3390451.884 12395582.152 22065214.765 10 0 60901 63000.00000 0 -5842265.578 13391184.077 20941050.881 10 0 60901 63900.00000 0 -8068152.494 14492213.957 19411423.985 10 0 60901 64800.00000 0 -10023885.409 15649406.306 17505881.362 10 0 60901 65700.00000 0 -11676154.448 16807525.426 15261241.863 10 0 60901 66600.00000 0 -13003699.526 17907706.379 12720896.874 10 0 60901 67500.00000 0 -13997945.630 18889969.205 9933984.336 10 0 60901 68400.00000 0 -14663114.824 19695801.906 6954450.357 10 0 60901 69300.00000 0 -15015810.376 20270704.337 3840015.332 10 0 60901 70200.00000 0 -15084090.288 20566586.172 651063.607 10 0 60901 71100.00000 0 -14906068.827 20543917.636 -2550522.512 10 0 60901 72000.00000 0 -14528104.581 20173541.449 -5702562.021 10 0 60901 72900.00000 0 -14002651.208 19438068.272 -8743784.439 10 0 60901 73800.00000 0 -13385861.507 18332795.064 -11615025.138 10 0 60901 74700.00000 0 -12735046.229 16866105.680 -14260382.896 10 0 60901 75600.00000 0 -12106095.476 15059334.766 -16628316.424 10 0 60901 76500.00000 0 -11550972.388 12946098.601 -18672657.683 10 0 60901 77400.00000 0 -11115386.004 10571119.181 -20353521.436 10 0 60901 78300.00000 0 -10836742.653 7988589.267 -21638092.522 10 0 60901 79200.00000 0 -10742463.612 5260145.606 -22501274.834 10 0 60901 80100.00000 0 -10848741.117 2452534.287 -22926188.753 10 0 60901 81000.00000 0 -11159786.305 -364934.796 -22904506.831 10 0 60901 81900.00000 0 -11667601.646 -3123038.364 -22436620.795 10 0 60901 82800.00000 0 -12352288.091 -5755284.515 -21531636.303 10 0 60901 83700.00000 0 -13182874.315 -8200441.478 -20207195.376 10 0 60901 84600.00000 0 -14118633.133 -10404844.903 -18489129.842 10 0 60901 85500.00000 0 -15110829.287 -12324387.486 -16410952.681 10 0 60902 0.00000 0 -16104824.213 -13926108.159 -14013197.617 10 0 60902 900.00000 0 -17042448.743 -15189315.931 -11342618.949 10 0 60902 1800.00000 0 -17864541.269 -16106200.431 -8451271.173 10 0 60902 2700.00000 0 -18513545.027 -16681907.976 -5395482.902 10 0 60902 3600.00000 0 -18936052.520 -16934079.682 -2234749.189 10 0 60902 4500.00000 0 -19085189.416 -16891874.117 969436.247 10 0 60902 5400.00000 0 -18922736.634 -16594517.781 4154784.953 10 0 60902 6300.00000 0 -18420900.887 -16089446.717 7259429.456 10 0 60902 7200.00000 0 -17563659.058 -15430119.571 10223126.409 10 0 60902 8100.00000 0 -16347620.147 -14673595.969 12988423.457 10 0 60902 9000.00000 0 -14782369.030 -13877983.375 15501767.262 10 0 60902 9900.00000 0 -12890278.108 -13099860.569 17714531.626 10 0 60902 10800.00000 0 -10705795.191 -12391786.175 19583946.739 10 0 60902 11700.00000 0 -8274237.547 -11799996.495 21073912.796 10 0 60902 12600.00000 0 -5650142.304 -11362388.421 22155683.657 10 0 60902 13500.00000 0 -2895241.313 -11106870.929 22808408.904 10 0 60902 14400.00000 0 -76143.600 -11050153.015 23019525.266 10 0 60902 15300.00000 0 2738179.773 -11197017.805 22784991.030 10 0 60902 16200.00000 0 5479005.936 -11540112.422 22109359.802 10 0 60902 17100.00000 0 8080459.316 -12060262.036 21005692.553 10 0 60902 18000.00000 0 10481993.880 -12727295.032 19495309.597 10 0 60902 18900.00000 0 12630657.547 -13501345.287 17607386.675 10 0 60902 19800.00000 0 14483046.475 -14334577.886 15378402.021 10 0 60902 20700.00000 0 16006869.291 -15173267.024 12851443.832 10 0 60902 21600.00000 0 17182057.121 -15960140.091 10075390.107 10 0 60902 22500.00000 0 18001373.605 -16636890.479 7103975.329 10 0 60902 23400.00000 0 18470499.512 -17146754.225 3994760.790 10 0 60902 24300.00000 0 18607588.255 -17437042.303 808027.491 10 0 60902 25200.00000 0 18442310.556 -17461521.744 -2394387.649 10 0 60902 26100.00000 0 18014427.980 -17182544.442 -5550289.958 10 0 60902 27000.00000 0 17371954.973 -16572832.653 -8598336.290 10 0 60902 27900.00000 0 16568986.601 -15616844.218 -11479231.588 10 0 60902 28800.00000 0 15663283.576 -14311657.948 -14136888.825 10 0 60902 29700.00000 0 14713716.696 -12667339.698 -16519529.032 10 0 60902 30600.00000 0 13777679.005 -10706771.481 -18580699.199 10 0 60902 31500.00000 0 12908575.624 -8464948.685 -20280187.318 10 0 60902 32400.00000 0 12153497.970 -5987772.974 -21584816.033 10 0 60902 33300.00000 0 11551181.410 -3330389.848 -22469098.698 10 0 60902 34200.00000 0 11130333.379 -555139.220 -22915744.452 10 0 60902 35100.00000 0 10908403.267 2270796.191 -22916001.992 10 0 60902 36000.00000 0 10890846.530 5077946.985 -22469834.923 10 0 60902 36900.00000 0 11070914.498 7797211.228 -21585924.957 10 0 60902 37800.00000 0 11429978.834 10362495.984 -20281502.708 10 0 60902 38700.00000 0 11938376.825 12713235.927 -18582009.282 10 0 60902 39600.00000 0 12556741.362 14796683.933 -16520595.332 10 0 60902 40500.00000 0 13237758.746 16569878.128 -14137467.583 10 0 60902 41400.00000 0 13928279.143 18001203.588 -11479095.988 10 0 60902 42300.00000 0 14571689.353 19071484.128 -8597297.657 10 0 60902 43200.00000 0 15110446.473 19774559.580 -5548216.242 10 0 60902 44100.00000 0 15488664.133 20117325.964 -2391217.645 10 0 60902 45000.00000 0 15654640.978 20119238.709 812275.313 10 0 60902 45900.00000 0 15563223.709 19811301.980 3999985.538 10 0 60902 46800.00000 0 15177904.344 19234588.778 7109997.310 10 0 60902 47700.00000 0 14472562.958 18438356.217 10081960.550 10 0 60902 48600.00000 0 13432782.505 17477837.089 12858259.976 10 0 60902 49500.00000 0 12056680.624 16411802.065 15385126.505 10 0 60902 50400.00000 0 10355223.856 15299995.882 17613669.780 10 0 60902 51300.00000 0 8352011.433 14200555.558 19500812.717 10 0 60902 52200.00000 0 6082537.830 13167518.700 21010111.182 10 0 60902 53100.00000 0 3592964.806 12248525.616 22112444.378 10 0 60902 54000.00000 0 938453.577 11482810.338 22786564.125 10 0 60902 54900.00000 0 -1818874.403 10899563.257 23019493.865 10 0 60902 55800.00000 0 -4612264.654 10516732.514 22806770.911 10 0 60902 56700.00000 0 -7372849.994 10340312.991 22152528.126 10 0 60902 57600.00000 0 -10032261.408 10364151.758 21069413.889 10 0 60902 58500.00000 0 -12525223.179 10570277.585 19578351.815 10 0 60902 59400.00000 0 -14792026.640 10929740.693 17708144.339 10 0 60902 60300.00000 0 -16780781.623 11403927.952 15494926.871 10 0 60902 61200.00000 0 -18449353.451 11946299.082 12981481.842 10 0 60902 62100.00000 0 -19766905.852 12504471.885 10216424.483 10 0 60902 63000.00000 0 -20714986.070 13022569.807 7253274.680 10 0 60902 63900.00000 0 -21288106.934 13443733.762 4149431.596 10 0 60902 64800.00000 0 -21493801.343 13712692.923 965069.885 10 0 60902 65700.00000 0 -21352146.377 13778286.032 -2238021.849 10 0 60902 66600.00000 0 -20894776.419 13595826.406 -5397638.081 10 0 60902 67500.00000 0 -20163426.169 13129209.771 -8452365.691 10 0 60902 68400.00000 0 -19208064.365 12352674.489 -11342781.718 10 0 60902 69300.00000 0 -18084696.530 11252138.007 -14012615.672 10 0 60902 70200.00000 0 -16852929.277 9826051.021 -16409853.029 10 0 60902 71100.00000 0 -15573399.009 8085731.074 -18487757.645 10 0 60902 72000.00000 0 -14305173.835 6055159.268 -20205792.301 10 0 60902 72900.00000 0 -13103238.755 3770246.458 -21530418.683 10 0 60902 73800.00000 0 -12016170.724 1277597.819 -22435760.520 10 0 60902 74700.00000 0 -11084102.239 -1367174.025 -22904116.312 10 0 60902 75600.00000 0 -10337059.783 -4101517.918 -22926311.188 10 0 60902 76500.00000 0 -9793747.539 -6858309.482 -22501880.601 10 0 60902 77400.00000 0 -9460827.822 -9568414.438 -21639081.977 10 0 60902 78300.00000 0 -9332728.486 -12163343.102 -20354733.877 10 0 60902 79200.00000 0 -9391985.054 -14577885.227 -18673885.736 10 0 60902 80100.00000 0 -9610102.513 -16752615.015 -16629324.647 10 0 60902 81000.00000 0 -9948899.452 -18636161.629 -14260929.076 10 0 60902 81900.00000 0 -10362276.631 -20187150.373 -11614882.504 10 0 60902 82800.00000 0 -10798333.894 -21375733.702 -8742762.985 10 0 60902 83700.00000 0 -11201744.511 -22184648.676 -5700527.206 10 0 60902 84600.00000 0 -11516285.094 -22609757.676 -2547409.795 10 0 60902 85500.00000 0 -11687412.792 -22660051.179 655239.546 10 0 60903 0.00000 0 -11664779.643 -22357114.354 3845157.138 10 0 60903 900.00000 0 -11404576.959 -21734081.665 6960382.035 10 0 60903 1800.00000 0 -10871610.239 -20834125.922 9940459.685 10 0 60903 2700.00000 0 -10041016.870 -19708546.632 12727614.491 10 0 60903 3600.00000 0 -8899554.272 -18414539.848 15267864.262 10 0 60903 4500.00000 0 -7446404.556 -17012744.144 17512057.063 10 0 60903 5400.00000 0 -5693462.190 -15564666.249 19416810.975 10 0 60903 6300.00000 0 -3665092.790 -14130094.145 20945339.777 10 0 60903 7200.00000 0 -1397373.078 -12764605.341 22068149.980 10 0 60903 8100.00000 0 1063156.668 -11517273.449 22763597.280 10 0 60903 9000.00000 0 3661176.507 -10428667.469 23018293.132 10 0 60903 9900.00000 0 6334638.220 -9529225.778 22827354.803 10 0 60903 10800.00000 0 9017100.544 -8838071.154 22194494.993 10 0 60903 11700.00000 0 11640253.184 -8362314.948 21131949.702 10 0 60903 12600.00000 0 14136526.830 -8096878.468 19660245.722 10 0 60903 13500.00000 0 16441682.821 -8024838.433 17807811.699 10 0 60903 14400.00000 0 18497276.749 -8118281.879 15610439.375 10 0 60903 15300.00000 0 20252895.024 -8339634.952 13110604.183 10 0 60903 16200.00000 0 21668072.427 -8643410.368 10356656.957 10 0 60903 17100.00000 0 22713811.316 -8978300.787 7401900.936 10 0 60903 18000.00000 0 23373639.184 -9289530.709 4303570.710 10 0 60903 18900.00000 0 23644160.094 -9521368.277 1121731.792 10 0 60903 19800.00000 0 23535076.307 -9619691.195 -2081878.588 10 0 60903 20700.00000 0 23068678.421 -9534498.194 -5245047.291 10 0 60903 21600.00000 0 22278824.612 -9222259.199 -8306294.506 10 0 60903 22500.00000 0 21209451.103 -8648003.708 -11206072.606 10 0 60903 23400.00000 0 19912675.942 -7787057.485 -13887930.736 10 0 60903 24300.00000 0 18446575.491 -6626352.266 -16299621.717 10 0 60903 25200.00000 0 16872727.102 -5165250.981 -18394128.954 10 0 60903 26100.00000 0 15253621.541 -3415851.419 -20130592.439 10 0 60903 27000.00000 0 13650054.358 -1402753.254 -21475115.061 10 0 60903 27900.00000 0 12118606.402 837703.860 -22401432.798 10 0 60903 28800.00000 0 10709319.937 3258701.016 -22891435.072 10 0 60903 29700.00000 0 9463668.541 5804648.202 -22935524.667 10 0 60903 30600.00000 0 8412906.411 8413269.516 -22532809.745 10 0 60903 31500.00000 0 7576866.642 11017978.862 -21691123.915 10 0 60903 32400.00000 0 6963258.802 13550447.174 -20426873.755 10 0 60903 33300.00000 0 6567494.903 15943253.955 -18764716.665 10 0 60903 34200.00000 0 6373050.311 18132512.106 -16737075.385 10 0 60903 35100.00000 0 6352343.239 20060356.134 -14383498.878 10 0 60903 36000.00000 0 6468094.374 21677189.495 -11749882.446 10 0 60903 36900.00000 0 6675107.655 22943597.008 -8887562.927 10 0 60903 37800.00000 0 6922395.246 23831842.562 -5852307.453 10 0 60903 38700.00000 0 7155555.183 24326890.004 -2703216.412 10 0 60903 39600.00000 0 7319299.501 24426905.444 498436.883 10 0 60903 40500.00000 0 7360024.500 24143221.318 3690406.205 10 0 60903 41400.00000 0 7228313.332 23499765.416 6810687.793 10 0 60903 42300.00000 0 6881264.354 22531980.666 9798726.745 10 0 60903 43200.00000 0 6284546.480 21285282.839 12596590.584 10 0 60903 44100.00000 0 5414094.745 19813122.485 15150087.253 10 0 60903 45000.00000 0 4257374.799 18174733.589 17409806.229 10 0 60903 45900.00000 0 2814163.403 16432664.028 19332063.460 10 0 60903 46800.00000 0 1096812.419 14650191.301 20879733.002 10 0 60903 47700.00000 0 -870014.732 12888731.178 22022950.669 10 0 60903 48600.00000 0 -3050123.309 11205346.528 22739677.618 10 0 60903 49500.00000 0 -5397052.304 9650458.850 23016114.441 10 0 60903 50400.00000 0 -7855772.558 8265856.312 22846958.993 10 0 60903 51300.00000 0 -10364748.732 7083079.551 22235503.894 10 0 60903 52200.00000 0 -12858281.151 6122250.851 21193572.287 10 0 60903 53100.00000 0 -15269032.090 5391394.107 19741293.072 10 0 60903 54000.00000 0 -17530633.526 4886272.872 17906719.483 10 0 60903 54900.00000 0 -19580269.789 4590752.593 15725297.450 10 0 60903 55800.00000 0 -21361129.219 4477671.677 13239192.831 10 0 60903 56700.00000 0 -22824623.901 4510184.995 10496489.141 10 0 60903 57600.00000 0 -23932285.617 4643523.829 7550269.841 10 0 60903 58500.00000 0 -24657258.995 4827098.729 4457601.698 10 0 60903 59400.00000 0 -24985329.165 5006857.204 1278437.820 10 0 60903 60300.00000 0 -24915440.194 5127797.018 -1925539.140 10 0 60903 61200.00000 0 -24459681.632 5136528.929 -5092111.514 10 0 60903 62100.00000 0 -23642742.685 4983780.071 -8159735.746 10 0 60903 63000.00000 0 -22500855.838 4626731.232 -11068742.327 10 0 60903 63900.00000 0 -21080273.442 4031087.823 -13762502.608 10 0 60903 64800.00000 0 -19435340.553 3172795.291 -16188539.088 10 0 60903 65700.00000 0 -17626244.581 2039324.467 -18299556.750 10 0 60903 66600.00000 0 -15716536.174 630470.409 -20054374.476 10 0 60903 67500.00000 0 -13770525.522 -1041371.168 -21418737.637 10 0 60903 68400.00000 0 -11850663.672 -2951463.698 -22365995.304 10 0 60903 69300.00000 0 -10015019.149 -5063516.841 -22877628.240 10 0 60903 70200.00000 0 -8314956.102 -7330969.459 -22943616.881 10 0 60903 71100.00000 0 -6793111.641 -9698716.007 -22562641.706 10 0 60903 72000.00000 0 -5481757.361 -12105204.910 -21742111.770 10 0 60903 72900.00000 0 -4401613.579 -14484821.562 -20498020.617 10 0 60903 73800.00000 0 -3561165.621 -16770456.385 -18854632.300 10 0 60903 74700.00000 0 -2956510.035 -18896150.328 -16844003.668 10 0 60903 75600.00000 0 -2571736.004 -20799706.775 -14505352.471 10 0 60903 76500.00000 0 -2379824.415 -22425160.163 -11884283.989 10 0 60903 77400.00000 0 -2344024.903 -23724997.582 -9031891.914 10 0 60903 78300.00000 0 -2419650.871 -24662040.198 -6003751.839 10 0 60903 79200.00000 0 -2556214.659 -25210905.823 -2858827.889 10 0 60903 80100.00000 0 -2699810.753 -25358991.846 341685.067 10 0 60903 81000.00000 0 -2795644.493 -25106938.246 3535560.056 10 0 60903 81900.00000 0 -2790597.933 -24468552.545 6660753.218 10 0 60903 82800.00000 0 -2635723.308 -23470201.376 9656611.198 10 0 60903 83700.00000 0 -2288558.071 -22149695.794 12465046.868 10 0 60903 84600.00000 0 -1715163.491 -20554718.582 15031660.538 10 0 60903 85500.00000 0 -891800.927 -18740860.716 17306785.299 99